FW7275 Weather Reports


Display with metric or nautical units.
time (UTC)temp
F
wind
direction
speed
MPH
gust
MPH
rain 1hr
in
rain 24hr
in
rain mn
in
humidity
%
barometer
mb
20220930010044 46 245 1.0 2.0 0.00 0.00 0.00 96
20220930005027 46 268 1.0 2.0 0.00 0.00 0.00 96
20220930004020 46 343 1.0 1.0 0.00 0.00 0.00 96
20220930003028 46 6 0.0 0.0 0.00 0.00 0.00 96
20220930001031 46 314 0.0 1.0 0.00 0.00 0.00 96
20220929235027 46 334 1.0 3.0 0.00 0.00 0.13 96
20220929233030 46 72 0.0 1.0 0.00 0.00 0.13 96
20220929231023 46 27 0.0 2.0 0.00 0.00 0.13 95
20220929225032 46 48 0.0 0.0 0.00 0.00 0.13 95
20220929224026 46 50 0.0 0.0 0.00 0.00 0.13 95
20220929223031 46 39 0.0 1.0 0.00 0.00 0.13 95
20220929220104 46 21 2.0 3.0 0.00 0.00 0.13 95
20220929215029 46 69 1.0 2.0 0.00 0.00 0.13 95
20220929214028 46 160 0.0 1.0 0.00 0.00 0.13 95
20220929213035 46 159 0.0 1.0 0.00 0.00 0.13 95
20220929212034 46 159 0.0 1.0 0.00 0.00 0.13 95
20220929210122 46 156 0.0 1.0 0.01 0.00 0.13 95
20220929205028 46 163 1.0 2.0 0.01 0.00 0.13 95
20220929204024 46 160 1.0 2.0 0.01 0.00 0.13 95
20220929203038 46 160 1.0 2.0 0.01 0.00 0.13 95
20220929195024 46 247 0.0 1.0 0.02 0.00 0.12 94
20220929194025 46 254 0.0 1.0 0.03 0.00 0.12 94
20220929193031 46 253 0.0 2.0 0.04 0.00 0.12 94
20220929192032 46 251 1.0 2.0 0.05 0.00 0.12 94
20220929191030 46 273 0.0 1.0 0.05 0.00 0.11 94
20220929190120 46 264 0.0 0.0 0.06 0.00 0.11 94
20220929184026 46 273 0.0 2.0 0.06 0.00 0.09 93
20220929182026 47 266 0.0 1.0 0.04 0.00 0.07 93
20220929181026 47 266 2.0 3.0 0.04 0.00 0.06 93
20220929180056 47 273 2.0 4.0 0.03 0.00 0.05 93
20220929174032 47 226 1.0 2.0 0.02 0.00 0.04 93
20220929173027 47 246 1.0 2.0 0.01 0.00 0.03 92
20220929170108 48 298 1.0 2.0 0.01 0.00 0.02 92
20220929165026 48 287 1.0 2.0 0.01 0.00 0.02 91
20220929164025 48 337 0.0 2.0 0.01 0.00 0.02 91
20220929163028 48 26 0.0 2.0 0.01 0.00 0.02 91
20220929162030 48 26 1.0 2.0 0.02 0.00 0.02 91
20220929161028 48 314 1.0 4.0 0.02 0.00 0.02 90
20220929160051 48 311 2.0 4.0 0.01 0.00 0.01 90
20220929154026 49 319 2.0 4.0 0.01 0.00 0.01 89
20220929153031 49 341 1.0 3.0 0.01 0.00 0.01 87
20220929152023 50 18 1.0 3.0 0.00 0.00 0.00 87
20220929151020 50 4 1.0 4.0 0.00 0.00 0.00 86
20220929150055 50 25 2.0 5.0 0.00 0.00 0.00 86
20220929145023 50 1 3.0 6.0 0.00 0.00 0.00 85
20220929144030 50 358 3.0 8.0 0.00 0.00 0.00 84
20220929141021 51 29 4.0 8.0 0.00 0.00 0.00 81
20220929140105 51 354 3.0 8.0 0.00 0.00 0.00 80
20220929134025 51 358 4.0 8.0 0.00 0.00 0.00 80
20220929133029 52 50 3.0 9.0 0.00 0.00 0.00 81
20220929132035 52 356 5.0 10.0 0.00 0.00 0.00 81
20220929130105 52 24 5.0 10.0 0.00 0.00 0.00 82
20220929125026 52 2 5.0 10.0 0.00 0.00 0.00 80
20220929124034 53 1 3.0 8.0 0.00 0.00 0.00 80
20220929123036 53 23 3.0 8.0 0.00 0.00 0.00 79
20220929121021 53 28 4.0 9.0 0.00 0.00 0.00 78
20220929113027 55 3 3.0 8.0 0.00 0.00 0.00 75
20220929112024 55 6 3.0 9.0 0.00 0.00 0.00 75
20220929111030 57 28 2.0 7.0 0.00 0.00 0.00 74
20220929110109 56 85 2.0 5.0 0.00 0.00 0.00 75
20220929105031 55 50 2.0 6.0 0.00 0.00 0.00 77
20220929104035 54 46 2.0 6.0 0.00 0.00 0.00 79
20220929102025 53 63 2.0 4.0 0.00 0.00 0.00 83
20220929101029 53 71 2.0 6.0 0.00 0.00 0.00 83
20220929100058 53 131 2.0 5.0 0.00 0.00 0.00 84
20220929095031 53 64 2.0 6.0 0.00 0.00 0.00 83
20220929093034 53 21 3.0 7.0 0.00 0.00 0.00 81
20220929092035 53 28 1.0 6.0 0.00 0.00 0.00 82
20220929091030 52 108 2.0 5.0 0.00 0.00 0.00 86
20220929085030 52 359 2.0 5.0 0.00 0.00 0.00 87
20220929084029 52 25 2.0 4.0 0.00 0.00 0.00 86
20220929081028 48 44 1.0 3.0 0.00 0.00 0.00 92
20220929074022 47 116 0.0 0.0 0.00 0.00 0.00 93
20220929073034 46 113 0.0 2.0 0.00 0.00 0.00 93
20220929072020 47 136 2.0 4.0 0.00 0.00 0.00 93
20220929071029 48 160 1.0 2.0 0.00 0.00 0.00 91
20220929070106 48 138 0.0 2.0 0.00 0.00 0.00 93
20220929065036 47 132 0.0 2.0 0.00 0.00 0.00 97
20220929064034 45 114 1.0 2.0 0.00 0.00 0.00 96
20220929062028 44 138 1.0 2.0 0.00 0.00 0.00 96
20220929060059 43 132 2.0 4.0 0.00 0.00 0.00 96
20220929055020 43 137 2.0 3.0 0.00 0.00 0.00 96
20220929054021 43 116 0.0 2.0 0.00 0.00 0.00 96
20220929050046 43 49 0.0 0.0 0.00 0.00 0.00 96
20220929040106 42 50 0.0 0.0 0.00 0.00 0.00 96
20220929033035 43 45 0.0 0.0 0.00 0.00 0.00 96
20220929032032 43 47 0.0 1.0 0.00 0.00 0.00 96
20220929025022 44 41 0.0 0.0 0.00 0.00 0.00 96
20220929024021 44 48 0.0 0.0 0.00 0.00 0.00 96
20220929023028 44 39 0.0 1.0 0.00 0.00 0.00 96
20220929020059 44 48 0.0 1.0 0.00 0.00 0.00 96
20220929015034 44 108 0.0 0.0 0.00 0.00 0.00 95
20220929014029 44 111 0.0 1.0 0.00 0.00 0.00 95
20220929013035 44 109 0.0 0.0 0.00 0.00 0.00 95
20220929012023 45 117 0.0 1.0 0.00 0.00 0.00 95
20220929011032 45 117 1.0 3.0 0.00 0.00 0.00 95